TimeMST,TemperatureF,Dew PointF,Humidity,Sea Level PressureIn,VisibilityMPH,Wind Direction,Wind SpeedMPH,Gust SpeedMPH,PrecipitationIn,Events,Conditions,WindDirDegrees,DateUTC
12:53 AM,5.0,-9.0,52,30.22,10.0,Calm,Calm,-,N/A,,Clear,0,2013-01-04 07:53:00
1:53 AM,1.9,-9.9,58,30.23,10.0,NNE,5.8,-,N/A,,Clear,30,2013-01-04 08:53:00
2:53 AM,-0.0,-9.9,63,30.24,10.0,North,3.5,-,N/A,,Clear,360,2013-01-04 09:53:00
3:53 AM,3.9,-9.0,55,30.22,10.0,Calm,Calm,-,N/A,,Clear,0,2013-01-04 10:53:00
4:53 AM,5.0,-6.0,61,30.25,10.0,NNE,5.8,-,N/A,,Clear,30,2013-01-04 11:53:00
5:53 AM,-0.9,-8.0,72,30.35,10.0,NNE,4.6,-,N/A,,Clear,30,2013-01-04 12:53:00
6:53 AM,1.9,-7.1,66,30.32,10.0,Calm,Calm,-,N/A,,Clear,0,2013-01-04 13:53:00
7:53 AM,10.0,-2.9,56,30.29,10.0,Calm,Calm,-,N/A,,Clear,0,2013-01-04 14:53:00
8:53 AM,10.0,-2.0,58,30.32,10.0,Calm,Calm,-,N/A,,Clear,0,2013-01-04 15:53:00
9:53 AM,19.9,-0.0,42,30.23,10.0,Calm,Calm,-,N/A,,Clear,0,2013-01-04 16:53:00
10:53 AM,26.1,-0.0,32,30.15,10.0,Calm,Calm,-,N/A,,Clear,0,2013-01-04 17:53:00
11:53 AM,32.0,-0.0,26,30.07,10.0,Calm,Calm,-,N/A,,Clear,0,2013-01-04 18:53:00
12:53 PM,35.1,-0.0,23,30.02,10.0,Calm,Calm,-,N/A,,Clear,0,2013-01-04 19:53:00
1:53 PM,35.1,3.0,26,30.00,10.0,NNW,9.2,-,N/A,,Clear,330,2013-01-04 20:53:00
2:53 PM,34.0,5.0,30,30.02,10.0,North,16.1,-,N/A,,Clear,350,2013-01-04 21:53:00
3:53 PM,30.9,5.0,33,30.01,10.0,North,17.3,26.5,N/A,,Clear,360,2013-01-04 22:53:00
4:53 PM,26.1,5.0,41,30.06,10.0,NNW,9.2,-,N/A,,Clear,330,2013-01-04 23:53:00
5:53 PM,19.9,3.9,50,30.15,10.0,North,6.9,-,N/A,,Clear,360,2013-01-05 00:53:00
6:53 PM,17.1,3.0,54,30.16,10.0,North,4.6,-,N/A,,Clear,360,2013-01-05 01:53:00
7:53 PM,14.0,1.9,59,30.13,10.0,North,6.9,-,N/A,,Clear,360,2013-01-05 02:53:00
8:53 PM,10.9,-0.9,59,30.15,10.0,North,5.8,-,N/A,,Clear,360,2013-01-05 03:53:00
9:53 PM,9.0,-0.9,64,30.11,10.0,North,5.8,-,N/A,,Clear,360,2013-01-05 04:53:00
10:53 PM,8.1,-2.0,64,30.09,10.0,North,5.8,-,N/A,,Clear,10,2013-01-05 05:53:00
11:53 PM,7.0,-2.9,64,30.04,10.0,NNE,5.8,-,N/A,,Clear,20,2013-01-05 06:53:00